星链-30466 (STARLINK-30466 )

导读

STARLINK-30466是美国SpaceX公司星链(Starlink)卫星互联网星座的一员,于2023年9月20日发射入轨。星链项目旨在通过近地轨道的大规模卫星组网,为全球尤其是偏远地区提供高速低延迟宽带互联网服务。该卫星作为星链扩容的组成部分,助力星座覆盖范围与服务能力的持续提升,推动全球卫星互联网基础设施的构建。

基本信息
目录编号:
57904
目录名称:
STARLINK-30466
国际标识:
2023-146P
轨道中心:
EARTH
卫星名称:
星链-30466
卫星全名:
星链-30466 (STARLINK-30466 )
卫星状态:
在轨 (已飞行1087 天)
发射日期:
2023-09-20 UTC
国别 :
美国 (US)
星等 :
--
该卫星已列入 空间交会检测服务 Space Conjunction Data Service (SCDS) ,当前飞行风险评估等级: 高风险
轨道信息
数据来源 国际轨道数据 AOE轨道数据
星历时间 2026-09-11T15:47:02+0800
11小时前
查看轨道信息
2026-09-07T03:00:00+0800
5天前
查看轨道信息
半长轴 6861.251km 6861.186km
偏心率 0.0003163 0.0001673
轨道倾角 43.005° 43.004°
近地点辐角 292.173° 272.171°
升交点赤经 346.096° 11.696°
平近点角 67.878° 332.285°
近地点 480.943km 481.901km
远地点 485.285km 484.197km
周期 94.268分钟 94.267分钟
每日圈数 15.275584 15.275802
详细信息
固有亮度:
5
最大亮度:
0.3
卫星平台:
Starlink v2.0 mini
覆盖范围:
全球
运营商:
太空探索技术公司
运营商所在国:
美国
制造商(研发单位):
太空探索技术公司
制造商所在国:
美国
使用方式:
暂无
卫星简介
星链(Starlink)计划是由太空探索技术公司(SpaceX)提出的一个巨型低轨卫星互联网星座项目,计划在2019年至2024年间在太空搭建由约1.2万颗卫星组成的“星链”网络,其中1584颗将部署在地球上空550千米处的近地轨道,并从2020年开始工作。该卫星仍在工作。
2D轨道图
3D轨道图
轨道高度分析图
轨道倾角分析图
轨道综合分析图
查看轨道综合分析图
与全量物体交会距离演化趋势
与全量物体交会风险概率演化趋势